Time,TemperatureF,DewpointF,PressureIn,WindDirection,WindDirectionDegrees,WindSpeedMPH,WindSpeedGustMPH,Humidity,HourlyPrecipIn,Conditions,Clouds,dailyrainin,SoftwareType,DateUTC
2013-05-26 00:02:00,62.5,53.1,30.20,ENE,70,6.0,10.0,71,0.00,,,0.00,WUHU216DAVISVP2,2013-05-26 05:02:00,
2013-05-26 00:07:00,62.4,53.4,30.20,ENE,62,7.0,9.0,72,0.00,,,0.00,WUHU216DAVISVP2,2013-05-26 05:07:00,
2013-05-26 00:12:00,62.3,53.2,30.20,ENE,63,5.0,10.0,72,0.00,,,0.00,WUHU216DAVISVP2,2013-05-26 05:12:00,
2013-05-26 00:17:00,62.1,52.6,30.20,ENE,65,7.0,10.0,71,0.00,,,0.00,WUHU216DAVISVP2,2013-05-26 05:17:00,
2013-05-26 00:22:00,62.0,52.5,30.21,ENE,58,7.0,10.0,71,0.00,,,0.00,WUHU216DAVISVP2,2013-05-26 05:22:00,
2013-05-26 00:27:00,61.8,52.7,30.21,ENE,65,4.0,10.0,72,0.00,,,0.00,WUHU216DAVISVP2,2013-05-26 05:27:00,
2013-05-26 00:32:00,61.6,52.6,30.21,ENE,68,5.0,10.0,72,0.00,,,0.00,WUHU216DAVISVP2,2013-05-26 05:32:00,
2013-05-26 00:37:00,61.3,52.0,30.21,ENE,59,8.0,12.0,71,0.00,,,0.00,WUHU216DAVISVP2,2013-05-26 05:37:00,
2013-05-26 00:42:00,61.1,51.8,30.20,NE,49,8.0,12.0,71,0.00,,,0.00,WUHU216DAVISVP2,2013-05-26 05:42:00,
2013-05-26 00:47:00,60.8,51.1,30.20,ENE,60,9.0,11.0,70,0.00,,,0.00,WUHU216DAVISVP2,2013-05-26 05:47:00,
2013-05-26 00:52:00,60.7,51.4,30.20,ENE,74,6.0,12.0,71,0.00,,,0.00,WUHU216DAVISVP2,2013-05-26 05:52:00,
2013-05-26 00:57:00,60.5,51.2,30.20,ENE,77,6.0,12.0,71,0.00,,,0.00,WUHU216DAVISVP2,2013-05-26 05:57:00,
2013-05-26 01:02:00,60.4,51.1,30.20,ENE,65,6.0,12.0,71,0.00,,,0.00,WUHU216DAVISVP2,2013-05-26 06:02:00,
2013-05-26 01:07:00,60.3,51.4,30.20,East,89,6.0,12.0,72,0.00,,,0.00,WUHU216DAVISVP2,2013-05-26 06:07:00,
2013-05-26 01:12:00,60.1,51.2,30.20,ENE,74,7.0,8.0,72,0.00,,,0.00,WUHU216DAVISVP2,2013-05-26 06:12:00,
2013-05-26 01:17:00,60.1,51.0,30.20,East,83,6.0,10.0,72,0.00,,,0.00,WUHU216DAVISVP2,2013-05-26 06:17:00,
2013-05-26 01:22:00,60.0,50.9,30.20,ENE,72,5.0,10.0,72,0.00,,,0.00,WUHU216DAVISVP2,2013-05-26 06:22:00,
2013-05-26 01:27:00,60.1,51.0,30.20,NE,54,8.0,15.0,72,0.00,,,0.00,WUHU216DAVISVP2,2013-05-26 06:27:00,
2013-05-26 01:32:00,60.1,51.2,30.20,ENE,59,9.0,15.0,72,0.00,,,0.00,WUHU216DAVISVP2,2013-05-26 06:32:00,
2013-05-26 01:37:00,60.2,50.9,30.20,ENE,70,7.0,11.0,71,0.00,,,0.00,WUHU216DAVISVP2,2013-05-26 06:37:00,
2013-05-26 01:42:00,60.1,50.8,30.20,East,91,6.0,11.0,71,0.00,,,0.00,WUHU216DAVISVP2,2013-05-26 06:42:00,
2013-05-26 01:47:00,60.2,50.9,30.20,ENE,63,10.0,12.0,71,0.00,,,0.00,WUHU216DAVISVP2,2013-05-26 06:47:00,
2013-05-26 01:52:00,60.2,50.9,30.20,ENE,77,10.0,13.0,71,0.00,,,0.00,WUHU216DAVISVP2,2013-05-26 06:52:00,
2013-05-26 01:57:00,60.2,50.5,30.20,ENE,77,5.0,13.0,70,0.00,,,0.00,WUHU216DAVISVP2,2013-05-26 06:57:00,
2013-05-26 02:02:00,60.2,50.5,30.20,East,90,4.0,12.0,70,0.00,,,0.00,WUHU216DAVISVP2,2013-05-26 07:02:00,
2013-05-26 02:07:00,60.2,50.5,30.20,ENE,72,5.0,8.0,70,0.00,,,0.00,WUHU216DAVISVP2,2013-05-26 07:07:00,
2013-05-26 02:12:00,60.2,50.5,30.20,ENE,76,4.0,10.0,70,0.00,,,0.00,WUHU216DAVISVP2,2013-05-26 07:12:00,
2013-05-26 02:17:00,60.2,50.0,30.20,ENE,63,5.0,10.0,69,0.00,,,0.00,WUHU216DAVISVP2,2013-05-26 07:17:00,
2013-05-26 02:22:00,60.1,49.9,30.20,ENE,66,7.0,10.0,69,0.00,,,0.00,WUHU216DAVISVP2,2013-05-26 07:22:00,
2013-05-26 02:27:00,60.1,49.9,30.19,ENE,69,7.0,10.0,69,0.00,,,0.00,WUHU216DAVISVP2,2013-05-26 07:27:00,
2013-05-26 02:32:00,60.0,49.6,30.19,ENE,72,3.0,11.0,68,0.00,,,0.00,WUHU216DAVISVP2,2013-05-26 07:32:00,
2013-05-26 02:37:00,59.9,49.8,30.19,East,91,6.0,11.0,69,0.00,,,0.00,WUHU216DAVISVP2,2013-05-26 07:37:00,
2013-05-26 02:42:00,59.8,49.7,30.19,ENE,71,7.0,8.0,69,0.00,,,0.00,WUHU216DAVISVP2,2013-05-26 07:42:00,
2013-05-26 02:47:00,59.7,49.3,30.19,East,88,9.0,11.0,68,0.00,,,0.00,WUHU216DAVISVP2,2013-05-26 07:47:00,
2013-05-26 02:52:00,59.6,49.2,30.18,ENE,62,7.0,11.0,68,0.00,,,0.00,WUHU216DAVISVP2,2013-05-26 07:52:00,
2013-05-26 02:57:00,59.5,49.5,30.18,ENE,67,6.0,10.0,69,0.00,,,0.00,WUHU216DAVISVP2,2013-05-26 07:57:00,
2013-05-26 03:02:00,59.4,49.4,30.18,East,94,6.0,10.0,69,0.00,,,0.00,WUHU216DAVISVP2,2013-05-26 08:02:00,
2013-05-26 03:07:00,59.3,49.3,30.18,ENE,68,9.0,10.0,69,0.00,,,0.00,WUHU216DAVISVP2,2013-05-26 08:07:00,
2013-05-26 03:12:00,59.1,49.5,30.18,ENE,77,6.0,13.0,70,0.00,,,0.00,WUHU216DAVISVP2,2013-05-26 08:12:00,
2013-05-26 03:17:00,59.0,49.4,30.18,East,84,5.0,13.0,70,0.00,,,0.00,WUHU216DAVISVP2,2013-05-26 08:17:00,
2013-05-26 03:22:00,58.8,49.5,30.18,NE,54,7.0,9.0,71,0.00,,,0.00,WUHU216DAVISVP2,2013-05-26 08:22:00,
2013-05-26 03:27:00,58.6,49.2,30.18,ENE,61,5.0,9.0,71,0.00,,,0.00,WUHU216DAVISVP2,2013-05-26 08:27:00,
2013-05-26 03:32:00,58.5,49.1,30.18,East,89,6.0,9.0,71,0.00,,,0.00,WUHU216DAVISVP2,2013-05-26 08:32:00,
2013-05-26 03:37:00,58.1,49.1,30.18,ENE,60,6.0,9.0,72,0.00,,,0.00,WUHU216DAVISVP2,2013-05-26 08:37:00,
2013-05-26 03:42:00,58.0,49.4,30.18,ENE,77,3.0,8.0,73,0.00,,,0.00,WUHU216DAVISVP2,2013-05-26 08:42:00,
2013-05-26 03:47:00,57.8,49.3,30.18,East,96,5.0,8.0,73,0.00,,,0.00,WUHU216DAVISVP2,2013-05-26 08:47:00,
2013-05-26 03:52:00,57.7,49.6,30.18,ENE,73,6.0,7.0,74,0.00,,,0.00,WUHU216DAVISVP2,2013-05-26 08:52:00,
2013-05-26 03:57:00,57.6,49.5,30.18,East,84,3.0,9.0,74,0.00,,,0.00,WUHU216DAVISVP2,2013-05-26 08:57:00,
2013-05-26 04:02:00,57.5,49.7,30.18,East,79,6.0,9.0,75,0.00,,,0.00,WUHU216DAVISVP2,2013-05-26 09:02:00,
2013-05-26 04:07:00,57.4,49.6,30.18,East,84,3.0,8.0,75,0.00,,,0.00,WUHU216DAVISVP2,2013-05-26 09:07:00,
2013-05-26 04:12:00,57.3,49.9,30.17,East,96,4.0,7.0,76,0.00,,,0.00,WUHU216DAVISVP2,2013-05-26 09:12:00,
2013-05-26 04:17:00,57.2,49.8,30.18,ESE,120,3.0,7.0,76,0.00,,,0.00,WUHU216DAVISVP2,2013-05-26 09:17:00,
2013-05-26 04:22:00,57.2,50.1,30.18,ENE,69,5.0,7.0,77,0.00,,,0.00,WUHU216DAVISVP2,2013-05-26 09:22:00,
2013-05-26 04:27:00,57.2,50.1,30.17,ENE,60,4.0,7.0,77,0.00,,,0.00,WUHU216DAVISVP2,2013-05-26 09:27:00,
2013-05-26 04:32:00,57.2,50.1,30.18,East,87,6.0,8.0,77,0.00,,,0.00,WUHU216DAVISVP2,2013-05-26 09:32:00,
2013-05-26 04:37:00,57.1,50.0,30.18,East,85,4.0,8.0,77,0.00,,,0.00,WUHU216DAVISVP2,2013-05-26 09:37:00,
2013-05-26 04:42:00,57.1,50.0,30.18,ENE,75,3.0,8.0,77,0.00,,,0.00,WUHU216DAVISVP2,2013-05-26 09:42:00,
2013-05-26 04:47:00,57.0,50.3,30.18,ENE,70,3.0,8.0,78,0.00,,,0.00,WUHU216DAVISVP2,2013-05-26 09:47:00,
2013-05-26 04:52:00,57.1,50.4,30.18,East,90,1.0,6.0,78,0.00,,,0.00,WUHU216DAVISVP2,2013-05-26 09:52:00,
2013-05-26 04:57:00,57.1,50.4,30.18,ESE,102,3.0,7.0,78,0.00,,,0.00,WUHU216DAVISVP2,2013-05-26 09:57:00,
2013-05-26 05:02:00,57.1,50.4,30.19,East,93,4.0,7.0,78,0.00,,,0.00,WUHU216DAVISVP2,2013-05-26 10:02:00,
2013-05-26 05:07:00,57.2,50.5,30.18,ESE,109,1.0,7.0,78,0.00,,,0.00,WUHU216DAVISVP2,2013-05-26 10:07:00,
2013-05-26 05:12:00,57.1,50.4,30.18,ESE,107,3.0,6.0,78,0.00,,,0.00,WUHU216DAVISVP2,2013-05-26 10:12:00,
2013-05-26 05:17:00,57.1,50.3,30.18,East,89,3.0,5.0,78,0.00,,,0.00,WUHU216DAVISVP2,2013-05-26 10:17:00,
2013-05-26 05:22:00,57.1,50.3,30.18,East,89,3.0,7.0,78,0.00,,,0.00,WUHU216DAVISVP2,2013-05-26 10:22:00,
2013-05-26 05:27:00,57.0,50.5,30.18,ESE,103,2.0,7.0,79,0.00,,,0.00,WUHU216DAVISVP2,2013-05-26 10:27:00,
2013-05-26 05:32:00,57.0,50.5,30.18,SE,124,6.0,8.0,79,0.00,,,0.00,WUHU216DAVISVP2,2013-05-26 10:32:00,
2013-05-26 05:37:00,57.0,50.6,30.19,East,86,3.0,8.0,79,0.00,,,0.00,WUHU216DAVISVP2,2013-05-26 10:37:00,
2013-05-26 05:42:00,57.0,50.5,30.19,East,94,7.0,7.0,79,0.00,,,0.00,WUHU216DAVISVP2,2013-05-26 10:42:00,
2013-05-26 05:47:00,57.1,50.7,30.19,ENE,70,3.0,9.0,79,0.00,,,0.00,WUHU216DAVISVP2,2013-05-26 10:47:00,
2013-05-26 05:52:00,57.1,50.6,30.19,ENE,75,2.0,8.0,79,0.00,,,0.00,WUHU216DAVISVP2,2013-05-26 10:52:00,
2013-05-26 05:57:00,57.1,51.0,30.19,ENE,78,5.0,6.0,80,0.00,,,0.00,WUHU216DAVISVP2,2013-05-26 10:57:00,
2013-05-26 06:02:00,57.2,51.1,30.19,East,98,0.0,7.0,80,0.00,,,0.00,WUHU216DAVISVP2,2013-05-26 11:02:00,
2013-05-26 06:07:00,57.3,51.2,30.19,ENE,78,3.0,7.0,80,0.00,,,0.00,WUHU216DAVISVP2,2013-05-26 11:07:00,
2013-05-26 06:11:00,57.4,51.3,30.19,ENE,72,4.0,7.0,80,0.00,,,0.00,WUHU216DAVISVP2,2013-05-26 11:11:00,
2013-05-26 06:16:00,57.5,51.4,30.19,East,82,2.0,7.0,80,0.00,,,0.00,WUHU216DAVISVP2,2013-05-26 11:16:00,
2013-05-26 06:21:00,57.6,51.5,30.19,ENE,77,5.0,7.0,80,0.00,,,0.00,WUHU216DAVISVP2,2013-05-26 11:21:00,
2013-05-26 06:26:00,57.6,51.5,30.19,East,82,3.0,8.0,80,0.00,,,0.00,WUHU216DAVISVP2,2013-05-26 11:26:00,
2013-05-26 06:31:00,57.7,51.6,30.19,East,99,7.0,8.0,80,0.00,,,0.00,WUHU216DAVISVP2,2013-05-26 11:31:00,
2013-05-26 06:36:00,57.7,51.6,30.19,East,87,5.0,7.0,80,0.00,,,0.00,WUHU216DAVISVP2,2013-05-26 11:36:00,
2013-05-26 06:41:00,57.8,51.7,30.18,East,84,3.0,7.0,80,0.00,,,0.00,WUHU216DAVISVP2,2013-05-26 11:41:00,
2013-05-26 06:46:00,57.9,51.8,30.18,East,97,1.0,7.0,80,0.00,,,0.00,WUHU216DAVISVP2,2013-05-26 11:46:00,
2013-05-26 06:51:00,58.3,52.2,30.18,ESE,109,2.0,6.0,80,0.00,,,0.00,WUHU216DAVISVP2,2013-05-26 11:51:00,
2013-05-26 06:56:00,58.6,52.2,30.18,East,88,4.0,6.0,79,0.00,,,0.00,WUHU216DAVISVP2,2013-05-26 11:56:00,
2013-05-26 07:01:00,58.8,52.0,30.18,ENE,72,4.0,6.0,78,0.00,,,0.00,WUHU216DAVISVP2,2013-05-26 12:01:00,
2013-05-26 07:06:00,59.0,52.6,30.18,East,88,4.0,6.0,79,0.00,,,0.00,WUHU216DAVISVP2,2013-05-26 12:06:00,
2013-05-26 07:11:00,59.3,52.5,30.18,ESE,105,2.0,8.0,78,0.00,,,0.00,WUHU216DAVISVP2,2013-05-26 12:11:00,
2013-05-26 07:16:00,59.8,52.7,30.18,East,101,1.0,8.0,77,0.00,,,0.00,WUHU216DAVISVP2,2013-05-26 12:16:00,
2013-05-26 07:21:00,60.0,52.9,30.18,East,84,2.0,7.0,77,0.00,,,0.00,WUHU216DAVISVP2,2013-05-26 12:21:00,
2013-05-26 07:26:00,60.5,53.3,30.18,ENE,74,5.0,7.0,77,0.00,,,0.00,WUHU216DAVISVP2,2013-05-26 12:26:00,
2013-05-26 07:31:00,60.8,52.9,30.18,East,84,4.0,7.0,75,0.00,,,0.00,WUHU216DAVISVP2,2013-05-26 12:31:00,
2013-05-26 07:36:00,61.1,53.2,30.18,ESE,113,2.0,7.0,75,0.00,,,0.00,WUHU216DAVISVP2,2013-05-26 12:36:00,
2013-05-26 07:41:00,61.5,53.3,30.18,ESE,111,3.0,8.0,74,0.00,,,0.00,WUHU216DAVISVP2,2013-05-26 12:41:00,
2013-05-26 07:46:00,61.8,53.4,30.18,ESE,122,2.0,10.0,74,0.00,,,0.00,WUHU216DAVISVP2,2013-05-26 12:46:00,
2013-05-26 07:51:00,62.1,53.3,30.19,ESE,116,3.0,10.0,73,0.00,,,0.00,WUHU216DAVISVP2,2013-05-26 12:51:00,
2013-05-26 07:56:00,62.3,54.0,30.19,ENE,75,2.0,9.0,74,0.00,,,0.00,WUHU216DAVISVP2,2013-05-26 12:56:00,
2013-05-26 08:01:00,63.0,54.3,30.19,ESE,121,3.0,9.0,73,0.00,,,0.00,WUHU216DAVISVP2,2013-05-26 13:01:00,
2013-05-26 08:07:00,63.2,54.2,30.19,SE,140,2.0,8.0,72,0.00,,,0.00,WUHU216DAVISVP2,2013-05-26 13:07:00,
2013-05-26 08:12:00,63.7,54.6,30.20,ESE,102,3.0,7.0,72,0.00,,,0.00,WUHU216DAVISVP2,2013-05-26 13:12:00,
2013-05-26 08:16:00,63.7,53.9,30.20,ESE,114,3.0,11.0,70,0.00,,,0.00,WUHU216DAVISVP2,2013-05-26 13:16:00,
2013-05-26 08:21:00,64.0,53.8,30.20,ENE,76,7.0,11.0,69,0.00,,,0.00,WUHU216DAVISVP2,2013-05-26 13:21:00,
2013-05-26 08:26:00,64.4,54.6,30.20,SE,129,4.0,9.0,70,0.00,,,0.00,WUHU216DAVISVP2,2013-05-26 13:26:00,
2013-05-26 08:31:00,64.5,54.7,30.20,ENE,72,3.0,8.0,70,0.00,,,0.00,WUHU216DAVISVP2,2013-05-26 13:31:00,
2013-05-26 08:36:00,64.1,54.3,30.20,ENE,64,5.0,11.0,70,0.00,,,0.00,WUHU216DAVISVP2,2013-05-26 13:36:00,
2013-05-26 08:41:00,63.7,54.6,30.20,ESE,102,5.0,11.0,72,0.00,,,0.00,WUHU216DAVISVP2,2013-05-26 13:41:00,
2013-05-26 08:46:00,63.5,54.1,30.20,ENE,67,6.0,11.0,71,0.00,,,0.00,WUHU216DAVISVP2,2013-05-26 13:46:00,
2013-05-26 08:51:00,63.6,54.5,30.20,East,89,3.0,9.0,72,0.00,,,0.00,WUHU216DAVISVP2,2013-05-26 13:51:00,
2013-05-26 08:56:00,64.5,54.7,30.20,ESE,118,6.0,6.0,70,0.00,,,0.00,WUHU216DAVISVP2,2013-05-26 13:56:00,
2013-05-26 09:01:00,64.8,54.5,30.20,ESE,122,5.0,9.0,69,0.00,,,0.00,WUHU216DAVISVP2,2013-05-26 14:01:00,
2013-05-26 09:06:00,64.8,54.5,30.20,East,88,3.0,11.0,69,0.00,,,0.00,WUHU216DAVISVP2,2013-05-26 14:06:00,
2013-05-26 09:11:00,65.2,54.9,30.20,ENE,72,6.0,11.0,69,0.00,,,0.00,WUHU216DAVISVP2,2013-05-26 14:11:00,
2013-05-26 09:16:00,64.9,54.9,30.19,ESE,113,1.0,11.0,70,0.00,,,0.00,WUHU216DAVISVP2,2013-05-26 14:16:00,
2013-05-26 09:21:00,65.0,55.0,30.19,ENE,67,3.0,11.0,70,0.00,,,0.00,WUHU216DAVISVP2,2013-05-26 14:21:00,
2013-05-26 09:26:00,65.5,55.8,30.19,East,79,7.0,7.0,71,0.00,,,0.00,WUHU216DAVISVP2,2013-05-26 14:26:00,
2013-05-26 09:31:00,66.2,55.9,30.19,ESE,115,6.0,7.0,69,0.00,,,0.00,WUHU216DAVISVP2,2013-05-26 14:31:00,
2013-05-26 09:36:00,66.8,56.5,30.19,ENE,66,4.0,10.0,69,0.00,,,0.00,WUHU216DAVISVP2,2013-05-26 14:36:00,
2013-05-26 09:41:00,67.2,56.0,30.19,ENE,78,5.0,10.0,67,0.00,,,0.00,WUHU216DAVISVP2,2013-05-26 14:41:00,
2013-05-26 09:46:00,67.5,56.3,30.19,SSE,160,0.0,8.0,67,0.00,,,0.00,WUHU216DAVISVP2,2013-05-26 14:46:00,
2013-05-26 09:51:00,68.1,56.5,30.19,ESE,121,1.0,8.0,66,0.00,,,0.00,WUHU216DAVISVP2,2013-05-26 14:51:00,
2013-05-26 09:56:00,68.7,57.1,30.19,ESE,108,3.0,5.0,66,0.00,,,0.00,WUHU216DAVISVP2,2013-05-26 14:56:00,
2013-05-26 10:01:00,68.6,56.1,30.18,ESE,114,3.0,5.0,64,0.00,,,0.00,WUHU216DAVISVP2,2013-05-26 15:01:00,
2013-05-26 10:06:00,69.6,56.9,30.19,SE,129,1.0,5.0,64,0.00,,,0.00,WUHU216DAVISVP2,2013-05-26 15:06:00,
2013-05-26 10:11:00,70.1,57.4,30.19,ESE,107,2.0,6.0,64,0.00,,,0.00,WUHU216DAVISVP2,2013-05-26 15:11:00,
2013-05-26 10:16:00,69.7,57.0,30.18,ENE,71,10.0,10.0,64,0.00,,,0.00,WUHU216DAVISVP2,2013-05-26 15:16:00,
2013-05-26 10:21:00,69.6,57.1,30.19,ENE,71,5.0,10.0,64,0.00,,,0.00,WUHU216DAVISVP2,2013-05-26 15:21:00,
2013-05-26 10:26:00,69.5,57.4,30.19,East,79,1.0,9.0,65,0.00,,,0.00,WUHU216DAVISVP2,2013-05-26 15:26:00,
2013-05-26 10:31:00,70.3,58.2,30.19,SE,131,2.0,9.0,65,0.00,,,0.00,WUHU216DAVISVP2,2013-05-26 15:31:00,
2013-05-26 10:36:00,70.5,57.5,30.19,East,80,8.0,9.0,63,0.00,,,0.00,WUHU216DAVISVP2,2013-05-26 15:36:00,
2013-05-26 10:41:00,70.3,57.7,30.19,ENE,72,5.0,12.0,64,0.00,,,0.00,WUHU216DAVISVP2,2013-05-26 15:41:00,
2013-05-26 10:46:00,70.4,56.9,30.19,ESE,120,3.0,12.0,62,0.00,,,0.00,WUHU216DAVISVP2,2013-05-26 15:46:00,
2013-05-26 10:51:00,70.7,58.6,30.19,SSE,158,2.0,8.0,65,0.00,,,0.00,WUHU216DAVISVP2,2013-05-26 15:51:00,
2013-05-26 10:56:00,71.3,58.7,30.19,ENE,68,10.0,12.0,64,0.00,,,0.00,WUHU216DAVISVP2,2013-05-26 15:56:00,
2013-05-26 11:01:00,71.6,59.0,30.19,ESE,115,3.0,12.0,64,0.00,,,0.00,WUHU216DAVISVP2,2013-05-26 16:01:00,
2013-05-26 11:06:00,71.8,58.3,30.19,East,95,4.0,10.0,62,0.00,,,0.00,WUHU216DAVISVP2,2013-05-26 16:06:00,
2013-05-26 11:11:00,71.8,58.3,30.18,SE,125,2.0,9.0,62,0.00,,,0.00,WUHU216DAVISVP2,2013-05-26 16:11:00,
2013-05-26 11:16:00,72.4,59.5,30.18,East,89,5.0,10.0,64,0.00,,,0.00,WUHU216DAVISVP2,2013-05-26 16:16:00,
2013-05-26 11:21:00,72.5,59.2,30.18,ENE,78,8.0,10.0,63,0.00,,,0.00,WUHU216DAVISVP2,2013-05-26 16:21:00,
2013-05-26 11:26:00,72.8,59.7,30.18,ESE,118,3.0,9.0,63,0.00,,,0.00,WUHU216DAVISVP2,2013-05-26 16:26:00,
2013-05-26 11:32:00,73.2,60.5,30.18,ENE,67,2.0,9.0,64,0.00,,,0.00,WUHU216DAVISVP2,2013-05-26 16:32:00,
2013-05-26 11:37:00,73.8,60.2,30.19,SW,221,1.0,7.0,62,0.00,,,0.00,WUHU216DAVISVP2,2013-05-26 16:37:00,
2013-05-26 11:42:00,73.5,59.0,30.19,ENE,66,4.0,11.0,60,0.00,,,0.00,WUHU216DAVISVP2,2013-05-26 16:42:00,
2013-05-26 11:47:00,73.3,59.5,30.18,SE,129,3.0,11.0,62,0.00,,,0.00,WUHU216DAVISVP2,2013-05-26 16:47:00,
2013-05-26 11:52:00,73.1,59.8,30.18,ESE,113,5.0,6.0,63,0.00,,,0.00,WUHU216DAVISVP2,2013-05-26 16:52:00,
2013-05-26 11:57:00,72.9,60.0,30.18,SE,136,0.0,7.0,64,0.00,,,0.00,WUHU216DAVISVP2,2013-05-26 16:57:00,
2013-05-26 12:02:00,73.1,60.8,30.18,ESE,105,2.0,7.0,65,0.00,,,0.00,WUHU216DAVISVP2,2013-05-26 17:02:00,
2013-05-26 12:07:00,73.2,60.1,30.18,ESE,103,3.0,6.0,63,0.00,,,0.00,WUHU216DAVISVP2,2013-05-26 17:07:00,
2013-05-26 12:12:00,73.8,60.2,30.18,SE,134,1.0,6.0,62,0.00,,,0.00,WUHU216DAVISVP2,2013-05-26 17:12:00,
2013-05-26 12:17:00,74.2,61.0,30.18,SE,130,1.0,5.0,63,0.00,,,0.00,WUHU216DAVISVP2,2013-05-26 17:17:00,
2013-05-26 12:22:00,74.1,60.0,30.17,SE,133,4.0,6.0,61,0.00,,,0.00,WUHU216DAVISVP2,2013-05-26 17:22:00,
2013-05-26 12:27:00,74.0,60.4,30.17,ESE,104,3.0,9.0,62,0.00,,,0.00,WUHU216DAVISVP2,2013-05-26 17:27:00,
2013-05-26 12:32:00,74.5,61.3,30.17,East,82,8.0,9.0,63,0.00,,,0.00,WUHU216DAVISVP2,2013-05-26 17:32:00,
2013-05-26 12:37:00,74.6,61.4,30.17,NE,54,0.0,10.0,63,0.00,,,0.00,WUHU216DAVISVP2,2013-05-26 17:37:00,
2013-05-26 12:42:00,75.6,62.1,30.16,ENE,72,5.0,10.0,63,0.00,,,0.00,WUHU216DAVISVP2,2013-05-26 17:42:00,
2013-05-26 12:47:00,75.7,61.8,30.16,SSE,153,1.0,6.0,62,0.00,,,0.00,WUHU216DAVISVP2,2013-05-26 17:47:00,
2013-05-26 12:52:00,76.2,61.8,30.16,ESE,115,5.0,8.0,61,0.00,,,0.00,WUHU216DAVISVP2,2013-05-26 17:52:00,
2013-05-26 12:57:00,76.7,62.5,30.16,SE,127,3.0,8.0,61,0.00,,,0.00,WUHU216DAVISVP2,2013-05-26 17:57:00,
2013-05-26 13:02:00,77.3,62.6,30.16,East,89,5.0,6.0,60,0.00,,,0.00,WUHU216DAVISVP2,2013-05-26 18:02:00,
2013-05-26 13:06:00,77.9,63.1,30.16,SSW,211,3.0,6.0,60,0.00,,,0.00,WUHU216DAVISVP2,2013-05-26 18:06:00,
2013-05-26 13:11:00,78.3,63.0,30.16,South,186,3.0,7.0,59,0.00,,,0.00,WUHU216DAVISVP2,2013-05-26 18:11:00,
2013-05-26 13:16:00,78.9,63.6,30.15,South,187,3.0,7.0,59,0.00,,,0.00,WUHU216DAVISVP2,2013-05-26 18:16:00,
2013-05-26 13:21:00,79.0,62.7,30.15,ESE,115,4.0,6.0,57,0.00,,,0.00,WUHU216DAVISVP2,2013-05-26 18:21:00,
2013-05-26 13:26:00,78.9,63.1,30.15,SSE,148,1.0,7.0,58,0.00,,,0.00,WUHU216DAVISVP2,2013-05-26 18:26:00,
2013-05-26 13:31:00,79.9,63.8,30.14,SSE,160,2.0,7.0,58,0.00,,,0.00,WUHU216DAVISVP2,2013-05-26 18:31:00,
2013-05-26 13:36:00,80.5,62.3,30.14,South,188,3.0,6.0,54,0.00,,,0.00,WUHU216DAVISVP2,2013-05-26 18:36:00,
2013-05-26 13:41:00,80.8,61.1,30.14,SE,140,2.0,6.0,51,0.00,,,0.00,WUHU216DAVISVP2,2013-05-26 18:41:00,
2013-05-26 13:46:00,81.2,60.9,30.14,South,190,9.0,10.0,50,0.00,,,0.00,WUHU216DAVISVP2,2013-05-26 18:46:00,
2013-05-26 13:51:00,80.2,61.1,30.14,SW,221,2.0,10.0,52,0.00,,,0.00,WUHU216DAVISVP2,2013-05-26 18:51:00,
2013-05-26 13:56:00,79.9,60.8,30.14,SSW,192,2.0,8.0,52,0.00,,,0.00,WUHU216DAVISVP2,2013-05-26 18:56:00,
2013-05-26 14:01:00,79.9,61.9,30.14,SE,137,5.0,5.0,54,0.00,,,0.00,WUHU216DAVISVP2,2013-05-26 19:01:00,
2013-05-26 14:06:00,80.2,61.7,30.14,ESE,114,2.0,6.0,53,0.00,,,0.00,WUHU216DAVISVP2,2013-05-26 19:06:00,
2013-05-26 14:11:00,80.7,61.6,30.14,ESE,116,3.0,9.0,52,0.00,,,0.00,WUHU216DAVISVP2,2013-05-26 19:11:00,
2013-05-26 14:16:00,80.0,60.9,30.13,SSW,199,3.0,9.0,52,0.00,,,0.00,WUHU216DAVISVP2,2013-05-26 19:16:00,
2013-05-26 14:21:00,80.3,62.9,30.13,SSE,165,2.0,7.0,55,0.00,,,0.00,WUHU216DAVISVP2,2013-05-26 19:21:00,
2013-05-26 14:26:00,81.0,62.3,30.13,SSE,157,0.0,5.0,53,0.00,,,0.00,WUHU216DAVISVP2,2013-05-26 19:26:00,
2013-05-26 14:31:00,81.4,63.2,30.13,SSE,158,2.0,5.0,54,0.00,,,0.00,WUHU216DAVISVP2,2013-05-26 19:31:00,
2013-05-26 14:36:00,80.9,62.3,30.13,SSW,198,3.0,5.0,53,0.00,,,0.00,WUHU216DAVISVP2,2013-05-26 19:36:00,
2013-05-26 14:41:00,80.5,62.0,30.13,ESE,109,2.0,5.0,53,0.00,,,0.00,WUHU216DAVISVP2,2013-05-26 19:41:00,
2013-05-26 14:46:00,80.7,62.1,30.12,South,188,4.0,10.0,53,0.00,,,0.00,WUHU216DAVISVP2,2013-05-26 19:46:00,
2013-05-26 14:51:00,81.0,63.5,30.12,South,171,3.0,10.0,55,0.00,,,0.00,WUHU216DAVISVP2,2013-05-26 19:51:00,
2013-05-26 14:56:00,81.6,63.5,30.12,SE,132,1.0,6.0,54,0.00,,,0.00,WUHU216DAVISVP2,2013-05-26 19:56:00,
2013-05-26 15:01:00,81.8,62.0,30.12,WSW,248,5.0,8.0,51,0.00,,,0.00,WUHU216DAVISVP2,2013-05-26 20:01:00,
2013-05-26 15:06:00,82.0,62.8,30.11,SSW,205,3.0,8.0,52,0.00,,,0.00,WUHU216DAVISVP2,2013-05-26 20:06:00,
2013-05-26 15:11:00,82.4,62.5,30.11,SE,146,2.0,6.0,51,0.00,,,0.00,WUHU216DAVISVP2,2013-05-26 20:11:00,
2013-05-26 15:16:00,82.7,64.9,30.11,SW,234,1.0,6.0,55,0.00,,,0.00,WUHU216DAVISVP2,2013-05-26 20:16:00,
2013-05-26 15:21:00,82.6,63.2,30.10,SSW,203,6.0,6.0,52,0.00,,,0.00,WUHU216DAVISVP2,2013-05-26 20:21:00,
2013-05-26 15:26:00,82.7,64.0,30.10,SW,231,3.0,6.0,53,0.00,,,0.00,WUHU216DAVISVP2,2013-05-26 20:26:00,
2013-05-26 15:32:00,82.3,63.1,30.10,ESE,122,4.0,7.0,52,0.00,,,0.00,WUHU216DAVISVP2,2013-05-26 20:32:00,
2013-05-26 15:36:00,82.0,63.9,30.10,SSE,162,1.0,7.0,54,0.00,,,0.00,WUHU216DAVISVP2,2013-05-26 20:36:00,
2013-05-26 15:41:00,82.2,63.0,30.10,SE,124,1.0,5.0,52,0.00,,,0.00,WUHU216DAVISVP2,2013-05-26 20:41:00,
2013-05-26 15:46:00,82.4,63.2,30.10,SSW,199,4.0,8.0,52,0.00,,,0.00,WUHU216DAVISVP2,2013-05-26 20:46:00,
2013-05-26 15:51:00,82.2,64.1,30.09,SSW,205,1.0,8.0,54,0.00,,,0.00,WUHU216DAVISVP2,2013-05-26 20:51:00,
2013-05-26 15:56:00,81.7,63.1,30.09,SW,214,5.0,7.0,53,0.00,,,0.00,WUHU216DAVISVP2,2013-05-26 20:56:00,
2013-05-26 16:01:00,81.4,63.9,30.09,SE,136,1.0,7.0,55,0.00,,,0.00,WUHU216DAVISVP2,2013-05-26 21:01:00,
2013-05-26 16:06:00,82.1,64.8,30.09,SSE,167,0.0,5.0,56,0.00,,,0.00,WUHU216DAVISVP2,2013-05-26 21:06:00,
2013-05-26 16:11:00,82.5,64.7,30.09,West,260,2.0,3.0,55,0.00,,,0.00,WUHU216DAVISVP2,2013-05-26 21:11:00,
2013-05-26 16:16:00,82.6,64.5,30.09,SE,140,0.0,7.0,54,0.00,,,0.00,WUHU216DAVISVP2,2013-05-26 21:16:00,
2013-05-26 16:21:00,82.7,64.0,30.09,SE,124,2.0,7.0,53,0.00,,,0.00,WUHU216DAVISVP2,2013-05-26 21:21:00,
2013-05-26 16:26:00,83.0,64.3,30.08,SSE,161,2.0,5.0,53,0.00,,,0.00,WUHU216DAVISVP2,2013-05-26 21:26:00,
2013-05-26 16:31:00,83.1,64.4,30.08,South,172,1.0,4.0,53,0.00,,,0.00,WUHU216DAVISVP2,2013-05-26 21:31:00,
2013-05-26 16:36:00,83.0,65.4,30.08,SE,146,1.0,3.0,55,0.00,,,0.00,WUHU216DAVISVP2,2013-05-26 21:36:00,
2013-05-26 16:41:00,83.0,64.6,30.08,WSW,243,0.0,4.0,54,0.00,,,0.00,WUHU216DAVISVP2,2013-05-26 21:41:00,
2013-05-26 16:46:00,83.1,63.7,30.08,ESE,110,2.0,7.0,52,0.00,,,0.00,WUHU216DAVISVP2,2013-05-26 21:46:00,
2013-05-26 16:51:00,82.7,65.1,30.08,SE,139,1.0,7.0,55,0.00,,,0.00,WUHU216DAVISVP2,2013-05-26 21:51:00,
2013-05-26 16:56:00,82.1,63.4,30.08,SSW,193,4.0,6.0,53,0.00,,,0.00,WUHU216DAVISVP2,2013-05-26 21:56:00,
2013-05-26 17:01:00,81.5,62.9,30.08,SSE,155,1.0,4.0,53,0.00,,,0.00,WUHU216DAVISVP2,2013-05-26 22:01:00,
2013-05-26 17:06:00,81.3,64.3,30.07,ESE,120,2.0,4.0,56,0.00,,,0.00,WUHU216DAVISVP2,2013-05-26 22:06:00,
2013-05-26 17:11:00,81.5,64.0,30.07,South,182,1.0,5.0,55,0.00,,,0.00,WUHU216DAVISVP2,2013-05-26 22:11:00,
2013-05-26 17:16:00,82.0,63.7,30.07,SSE,157,5.0,5.0,54,0.00,,,0.00,WUHU216DAVISVP2,2013-05-26 22:16:00,
2013-05-26 17:21:00,82.0,64.2,30.07,WSW,250,0.0,5.0,55,0.00,,,0.00,WUHU216DAVISVP2,2013-05-26 22:21:00,
2013-05-26 17:26:00,82.0,64.4,30.07,SSW,198,7.0,7.0,55,0.00,,,0.00,WUHU216DAVISVP2,2013-05-26 22:26:00,
2013-05-26 17:31:00,81.7,64.7,30.07,SSW,205,4.0,7.0,56,0.00,,,0.00,WUHU216DAVISVP2,2013-05-26 22:31:00,
2013-05-26 17:37:00,81.4,64.9,30.06,SE,141,0.0,5.0,57,0.00,,,0.00,WUHU216DAVISVP2,2013-05-26 22:37:00,
2013-05-26 17:42:00,81.4,64.9,30.06,South,181,1.0,4.0,57,0.00,,,0.00,WUHU216DAVISVP2,2013-05-26 22:42:00,
2013-05-26 17:47:00,81.5,65.0,30.06,SE,142,0.0,4.0,57,0.00,,,0.00,WUHU216DAVISVP2,2013-05-26 22:47:00,
2013-05-26 17:52:00,81.5,64.5,30.06,SSW,196,1.0,3.0,56,0.00,,,0.00,WUHU216DAVISVP2,2013-05-26 22:52:00,
2013-05-26 17:56:00,81.4,64.9,30.06,ESE,110,1.0,3.0,57,0.00,,,0.00,WUHU216DAVISVP2,2013-05-26 22:56:00,
2013-05-26 18:01:00,81.2,63.7,30.06,SE,136,1.0,4.0,55,0.00,,,0.00,WUHU216DAVISVP2,2013-05-26 23:01:00,
2013-05-26 18:06:00,81.3,64.6,30.05,SW,221,1.0,4.0,57,0.00,,,0.00,WUHU216DAVISVP2,2013-05-26 23:06:00,
2013-05-26 18:11:00,81.2,64.5,30.05,SSW,194,0.0,3.0,57,0.00,,,0.00,WUHU216DAVISVP2,2013-05-26 23:11:00,
2013-05-26 18:16:00,81.1,65.9,30.06,SW,221,0.0,4.0,60,0.00,,,0.00,WUHU216DAVISVP2,2013-05-26 23:16:00,
2013-05-26 18:21:00,80.8,65.1,30.05,ENE,76,0.0,4.0,59,0.00,,,0.00,WUHU216DAVISVP2,2013-05-26 23:21:00,
2013-05-26 18:26:00,80.5,64.4,30.05,SE,141,1.0,4.0,58,0.00,,,0.00,WUHU216DAVISVP2,2013-05-26 23:26:00,
2013-05-26 18:31:00,80.3,64.9,30.05,SSW,203,1.0,4.0,59,0.00,,,0.00,WUHU216DAVISVP2,2013-05-26 23:31:00,
2013-05-26 18:36:00,79.9,64.5,30.05,SSE,162,1.0,3.0,59,0.00,,,0.00,WUHU216DAVISVP2,2013-05-26 23:36:00,
2013-05-26 18:41:00,79.6,64.7,30.05,ESE,107,2.0,3.0,60,0.00,,,0.00,WUHU216DAVISVP2,2013-05-26 23:41:00,
2013-05-26 18:46:00,79.4,64.0,30.05,SW,231,0.0,4.0,59,0.00,,,0.00,WUHU216DAVISVP2,2013-05-26 23:46:00,
2013-05-26 18:51:00,79.3,64.4,30.05,ESE,110,1.0,4.0,60,0.00,,,0.00,WUHU216DAVISVP2,2013-05-26 23:51:00,
2013-05-26 18:56:00,79.0,64.6,30.04,South,184,0.0,4.0,61,0.00,,,0.00,WUHU216DAVISVP2,2013-05-26 23:56:00,
2013-05-26 19:01:00,78.7,64.4,30.04,SSE,154,0.0,5.0,61,0.00,,,0.00,WUHU216DAVISVP2,2013-05-27 00:01:00,
2013-05-26 19:06:00,78.4,63.8,30.04,SE,140,1.0,5.0,61,0.00,,,0.00,WUHU216DAVISVP2,2013-05-27 00:06:00,
2013-05-26 19:11:00,78.2,64.1,30.04,East,95,1.0,3.0,62,0.00,,,0.00,WUHU216DAVISVP2,2013-05-27 00:11:00,
2013-05-26 19:16:00,78.0,63.7,30.04,ESE,112,2.0,3.0,61,0.00,,,0.00,WUHU216DAVISVP2,2013-05-27 00:16:00,
2013-05-26 19:21:00,77.8,64.0,30.04,SE,136,1.0,4.0,62,0.00,,,0.00,WUHU216DAVISVP2,2013-05-27 00:21:00,
2013-05-26 19:26:00,77.5,63.7,30.04,SSE,147,0.0,4.0,62,0.00,,,0.00,WUHU216DAVISVP2,2013-05-27 00:26:00,
2013-05-26 19:31:00,77.5,63.7,30.04,ESE,119,1.0,4.0,62,0.00,,,0.00,WUHU216DAVISVP2,2013-05-27 00:31:00,
2013-05-26 19:36:00,77.5,64.1,30.05,ESE,118,0.0,4.0,63,0.00,,,0.00,WUHU216DAVISVP2,2013-05-27 00:36:00,
2013-05-26 19:41:00,77.2,63.9,30.05,ESE,119,0.0,1.0,63,0.00,,,0.00,WUHU216DAVISVP2,2013-05-27 00:41:00,
2013-05-26 19:46:00,76.6,63.3,30.05,ESE,103,0.0,3.0,63,0.00,,,0.00,WUHU216DAVISVP2,2013-05-27 00:46:00,
2013-05-26 19:51:00,76.4,63.1,30.05,ESE,118,0.0,3.0,63,0.00,,,0.00,WUHU216DAVISVP2,2013-05-27 00:51:00,
2013-05-26 19:56:00,76.1,62.8,30.05,ESE,110,1.0,2.0,63,0.00,,,0.00,WUHU216DAVISVP2,2013-05-27 00:56:00,
2013-05-26 20:01:00,75.9,63.1,30.05,ESE,121,1.0,3.0,64,0.00,,,0.00,WUHU216DAVISVP2,2013-05-27 01:01:00,
2013-05-26 20:06:00,75.6,62.8,30.05,ESE,106,1.0,3.0,64,0.00,,,0.00,WUHU216DAVISVP2,2013-05-27 01:06:00,
2013-05-26 20:11:00,75.3,62.5,30.05,SE,130,0.0,2.0,64,0.00,,,0.00,WUHU216DAVISVP2,2013-05-27 01:11:00,
2013-05-26 20:16:00,75.0,62.4,30.05,SSE,150,1.0,2.0,65,0.00,,,0.00,WUHU216DAVISVP2,2013-05-27 01:16:00,
2013-05-26 20:21:00,74.8,62.2,30.04,ESE,108,1.0,2.0,65,0.00,,,0.00,WUHU216DAVISVP2,2013-05-27 01:21:00,
2013-05-26 20:26:00,74.6,61.6,30.05,SSE,161,0.0,4.0,64,0.00,,,0.00,WUHU216DAVISVP2,2013-05-27 01:26:00,
2013-05-26 20:31:00,74.4,61.9,30.05,ESE,107,1.0,4.0,65,0.00,,,0.00,WUHU216DAVISVP2,2013-05-27 01:31:00,
2013-05-26 20:36:00,74.2,61.7,30.05,SE,132,1.0,1.0,65,0.00,,,0.00,WUHU216DAVISVP2,2013-05-27 01:36:00,
2013-05-26 20:41:00,73.9,62.0,30.05,SE,124,0.0,1.0,66,0.00,,,0.00,WUHU216DAVISVP2,2013-05-27 01:41:00,
2013-05-26 20:46:00,73.7,61.8,30.05,ESE,122,1.0,2.0,66,0.00,,,0.00,WUHU216DAVISVP2,2013-05-27 01:46:00,
2013-05-26 20:51:00,73.5,62.1,30.05,ESE,120,0.0,3.0,67,0.00,,,0.00,WUHU216DAVISVP2,2013-05-27 01:51:00,
2013-05-26 20:56:00,73.2,62.2,30.05,SE,143,0.0,3.0,68,0.00,,,0.00,WUHU216DAVISVP2,2013-05-27 01:56:00,
2013-05-26 21:01:00,73.0,62.0,30.05,SE,126,0.0,3.0,68,0.00,,,0.00,WUHU216DAVISVP2,2013-05-27 02:01:00,
2013-05-26 21:06:00,72.9,62.3,30.05,SE,129,0.0,2.0,69,0.00,,,0.00,WUHU216DAVISVP2,2013-05-27 02:06:00,
2013-05-26 21:11:00,72.7,62.5,30.05,East,100,0.0,2.0,70,0.00,,,0.00,WUHU216DAVISVP2,2013-05-27 02:11:00,
2013-05-26 21:16:00,72.5,62.7,30.05,SE,138,0.0,2.0,71,0.00,,,0.00,WUHU216DAVISVP2,2013-05-27 02:16:00,
2013-05-26 21:21:00,72.3,62.5,30.05,SSW,212,0.0,2.0,71,0.00,,,0.00,WUHU216DAVISVP2,2013-05-27 02:21:00,
2013-05-26 21:26:00,72.2,62.8,30.05,SE,129,0.0,2.0,72,0.00,,,0.00,WUHU216DAVISVP2,2013-05-27 02:26:00,
2013-05-26 21:31:00,71.9,62.6,30.05,ESE,110,0.0,2.0,72,0.00,,,0.00,WUHU216DAVISVP2,2013-05-27 02:31:00,
2013-05-26 21:36:00,71.7,62.7,30.05,ESE,120,2.0,2.0,73,0.00,,,0.00,WUHU216DAVISVP2,2013-05-27 02:36:00,
2013-05-26 21:41:00,71.7,62.7,30.05,ESE,115,2.0,2.0,73,0.00,,,0.00,WUHU216DAVISVP2,2013-05-27 02:41:00,
2013-05-26 21:46:00,71.6,62.6,30.05,ESE,102,0.0,3.0,73,0.00,,,0.00,WUHU216DAVISVP2,2013-05-27 02:46:00,
2013-05-26 21:51:00,71.5,62.6,30.05,ENE,72,2.0,3.0,73,0.00,,,0.00,WUHU216DAVISVP2,2013-05-27 02:51:00,
2013-05-26 21:56:00,71.5,62.6,30.05,SSE,151,1.0,3.0,73,0.00,,,0.00,WUHU216DAVISVP2,2013-05-27 02:56:00,
2013-05-26 22:01:00,71.5,62.6,30.05,ESE,113,1.0,3.0,73,0.00,,,0.00,WUHU216DAVISVP2,2013-05-27 03:01:00,
2013-05-26 22:06:00,71.5,62.6,30.05,SE,141,1.0,2.0,73,0.00,,,0.00,WUHU216DAVISVP2,2013-05-27 03:06:00,
2013-05-26 22:11:00,71.3,62.4,30.05,SE,124,1.0,2.0,73,0.00,,,0.00,WUHU216DAVISVP2,2013-05-27 03:11:00,
2013-05-26 22:16:00,71.1,62.5,30.05,SE,142,0.0,2.0,74,0.00,,,0.00,WUHU216DAVISVP2,2013-05-27 03:16:00,
2013-05-26 22:21:00,70.9,62.3,30.05,SE,127,0.0,2.0,74,0.00,,,0.00,WUHU216DAVISVP2,2013-05-27 03:21:00,
2013-05-26 22:26:00,70.7,62.5,30.05,SE,125,0.0,0.0,75,0.00,,,0.00,WUHU216DAVISVP2,2013-05-27 03:26:00,
2013-05-26 22:31:00,70.4,62.2,30.05,East,101,0.0,0.0,75,0.00,,,0.00,WUHU216DAVISVP2,2013-05-27 03:31:00,
2013-05-26 22:36:00,70.3,62.1,30.05,ESE,123,0.0,0.0,75,0.00,,,0.00,WUHU216DAVISVP2,2013-05-27 03:36:00,
2013-05-26 22:41:00,70.5,62.3,30.05,ESE,120,0.0,0.0,75,0.00,,,0.00,WUHU216DAVISVP2,2013-05-27 03:41:00,
2013-05-26 22:46:00,70.5,62.0,30.05,ESE,117,0.0,0.0,74,0.00,,,0.00,WUHU216DAVISVP2,2013-05-27 03:46:00,
2013-05-26 22:51:00,70.4,61.9,30.05,East,100,0.0,0.0,74,0.00,,,0.00,WUHU216DAVISVP2,2013-05-27 03:51:00,
2013-05-26 22:56:00,70.3,62.1,30.05,East,93,0.0,2.0,75,0.00,,,0.00,WUHU216DAVISVP2,2013-05-27 03:56:00,
2013-05-26 23:01:00,70.1,61.9,30.05,East,84,0.0,2.0,75,0.00,,,0.00,WUHU216DAVISVP2,2013-05-27 04:01:00,
2013-05-26 23:06:00,70.0,61.8,30.05,East,86,0.0,1.0,75,0.00,,,0.00,WUHU216DAVISVP2,2013-05-27 04:06:00,
2013-05-26 23:11:00,69.7,61.6,30.05,ESE,120,0.0,1.0,75,0.00,,,0.00,WUHU216DAVISVP2,2013-05-27 04:11:00,
2013-05-26 23:16:00,69.6,61.8,30.05,ESE,115,0.0,1.0,76,0.00,,,0.00,WUHU216DAVISVP2,2013-05-27 04:16:00,
2013-05-26 23:21:00,69.6,61.5,30.05,ESE,123,0.0,2.0,75,0.00,,,0.00,WUHU216DAVISVP2,2013-05-27 04:21:00,
2013-05-26 23:26:00,69.6,61.5,30.05,SE,146,0.0,2.0,75,0.00,,,0.00,WUHU216DAVISVP2,2013-05-27 04:26:00,
2013-05-26 23:31:00,69.5,61.4,30.04,SE,130,0.0,2.0,75,0.00,,,0.00,WUHU216DAVISVP2,2013-05-27 04:31:00,
2013-05-26 23:36:00,69.3,61.5,30.04,ESE,110,0.0,1.0,76,0.00,,,0.00,WUHU216DAVISVP2,2013-05-27 04:36:00,
2013-05-26 23:41:00,69.0,61.6,30.04,ESE,112,0.0,1.0,77,0.00,,,0.00,WUHU216DAVISVP2,2013-05-27 04:41:00,
2013-05-26 23:46:00,68.8,61.4,30.04,ESE,112,0.0,1.0,77,0.00,,,0.00,WUHU216DAVISVP2,2013-05-27 04:46:00,
2013-05-26 23:51:00,68.8,61.4,30.04,SE,144,0.0,1.0,77,0.00,,,0.00,WUHU216DAVISVP2,2013-05-27 04:51:00,
2013-05-26 23:56:00,68.7,61.3,30.04,SSW,198,0.0,1.0,77,0.00,,,0.00,WUHU216DAVISVP2,2013-05-27 04:56:00,